| time (UTC) | temp F | wind direction | speed knots | gust knots | rain 1hr in | rain 24hr in | rain mn in | humidity % | barometer mb |
| 20260504213541 | 81 | 274 | 3.5 | 6.1 | 0.00 | 0.00 | 0.00 | 25 | 1016.5 |
| 20260504212520 | 81 | 249 | 4.3 | 6.1 | 0.00 | 0.00 | 0.00 | 24 | 1016.5 |
| 20260504211520 | 82 | 198 | 5.2 | 7.8 | 0.00 | 0.00 | 0.00 | 25 | 1016.5 |
| 20260504210519 | 81 | 335 | 2.6 | 4.3 | 0.00 | 0.00 | 0.00 | 25 | 1016.7 |
| 20260504205519 | 81 | 262 | 4.3 | 6.1 | 0.00 | 0.00 | 0.00 | 27 | 1016.7 |
| 20260504204518 | 82 | 267 | 5.2 | 7.0 | 0.00 | 0.00 | 0.00 | 25 | 1016.9 |
| 20260504203523 | 81 | 283 | 4.3 | 7.0 | 0.00 | 0.00 | 0.00 | 26 | 1017.0 |
| 20260504202529 | 81 | 32 | 3.5 | 5.2 | 0.00 | 0.00 | 0.00 | 26 | 1017.0 |
| 20260504201517 | 82 | 284 | 4.3 | 7.8 | 0.00 | 0.00 | 0.00 | 26 | 1017.1 |
| 20260504200522 | 81 | 268 | 3.5 | 6.1 | 0.00 | 0.00 | 0.00 | 26 | 1017.2 |
| 20260504195527 | 81 | 259 | 4.3 | 6.1 | 0.00 | 0.00 | 0.00 | 26 | 1017.3 |
| 20260504194535 | 81 | 286 | 2.6 | 5.2 | 0.00 | 0.00 | 0.00 | 27 | 1017.3 |
| 20260504193520 | 81 | 260 | 3.5 | 7.0 | 0.00 | 0.00 | 0.00 | 27 | 1017.5 |
| 20260504192526 | 82 | 256 | 5.2 | 7.0 | 0.00 | 0.00 | 0.00 | 26 | 1017.7 |
| 20260504191551 | 81 | 238 | 3.5 | 5.2 | 0.00 | 0.00 | 0.00 | 26 | 1017.7 |
| 20260504190600 | 81 | 223 | 4.3 | 6.1 | 0.00 | 0.00 | 0.00 | 26 | 1017.8 |
| 20260504185545 | 82 | 240 | 5.2 | 7.8 | 0.00 | 0.00 | 0.00 | 27 | 1017.9 |
| 20260504184530 | 81 | 201 | 2.6 | 4.3 | 0.00 | 0.00 | 0.00 | 27 | 1018.0 |
| 20260504183518 | 81 | 272 | 3.5 | 7.0 | 0.00 | 0.00 | 0.00 | 27 | 1018.3 |
| 20260504182523 | 81 | 265 | 4.3 | 6.1 | 0.00 | 0.00 | 0.00 | 26 | 1018.2 |
| 20260504181528 | 81 | 252 | 3.5 | 5.2 | 0.00 | 0.00 | 0.00 | 26 | 1018.1 |
| 20260504180517 | 80 | 260 | 4.3 | 9.6 | 0.00 | 0.00 | 0.00 | 27 | 1018.1 |
| 20260504175521 | 80 | 315 | 4.3 | 6.1 | 0.00 | 0.00 | 0.00 | 26 | 1018.4 |
| 20260504174527 | 80 | 269 | 2.6 | 4.3 | 0.00 | 0.00 | 0.00 | 26 | 1018.6 |
| 20260504173514 | 79 | 239 | 4.3 | 7.8 | 0.00 | 0.00 | 0.00 | 26 | 1018.6 |
| 20260504172520 | 79 | 241 | 5.2 | 7.0 | 0.00 | 0.00 | 0.00 | 27 | 1018.7 |
| 20260504171526 | 77 | 198 | 3.5 | 5.2 | 0.00 | 0.00 | 0.00 | 28 | 1018.8 |
| 20260504170531 | 78 | 220 | 3.5 | 7.0 | 0.00 | 0.00 | 0.00 | 26 | 1018.9 |
| 20260504150525 | 72 | 228 | 2.6 | 4.3 | 0.00 | 0.00 | 0.00 | 35 | 1020.3 |
| 20260504140522 | 66 | 261 | 2.6 | 4.3 | 0.00 | 0.00 | 0.00 | 47 | 1020.1 |
| 20260504130519 | 58 | 210 | 4.3 | 5.2 | 0.00 | 0.00 | 0.00 | 62 | 1020.4 |
| 20260504110531 | 41 | 0.0 | 0.0 | 0.00 | 0.00 | 0.00 | 98 | 1020.1 | |
| 20260504100528 | 42 | 0.0 | 0.0 | 0.00 | 0.00 | 0.00 | 98 | 1020.1 | |
| 20260504081516 | 42 | 0.0 | 0.0 | 0.00 | 0.00 | 0.00 | 93 | 1019.7 | |
| 20260504080522 | 42 | 0.0 | 0.0 | 0.00 | 0.00 | 0.00 | 93 | 1019.6 | |
| 20260504050519 | 45 | 0.0 | 0.0 | 0.00 | 0.00 | 0.00 | 78 | 1020.1 | |
| 20260504045518 | 45 | 0.0 | 0.0 | 0.00 | 0.00 | 0.00 | 78 | 1020.1 | |
| 20260504044518 | 45 | 0.0 | 0.0 | 0.00 | 0.00 | 0.00 | 76 | 1020.1 | |
| 20260504043537 | 45 | 0.0 | 0.0 | 0.00 | 0.00 | 0.00 | 75 | 1020.1 | |
| 20260504042517 | 46 | 0.0 | 0.0 | 0.00 | 0.00 | 0.00 | 75 | 1020.2 | |
| 20260504041516 | 46 | 0.0 | 0.0 | 0.00 | 0.00 | 0.00 | 75 | 1020.3 | |
| 20260504040536 | 46 | 0.0 | 0.0 | 0.00 | 0.00 | 0.00 | 74 | 1020.3 | |
| 20260504035536 | 46 | 0.0 | 0.0 | 0.00 | 0.00 | 0.00 | 73 | 1020.3 | |
| 20260504034515 | 46 | 0.0 | 0.0 | 0.00 | 0.00 | 0.00 | 71 | 1020.3 | |
| 20260504033526 | 46 | 0.0 | 0.0 | 0.00 | 0.00 | 0.00 | 70 | 1020.3 | |
| 20260504032532 | 46 | 0.0 | 0.0 | 0.00 | 0.00 | 0.00 | 69 | 1020.3 | |
| 20260504031519 | 46 | 0.0 | 0.0 | 0.00 | 0.00 | 0.00 | 70 | 1020.3 | |
| 20260504030525 | 46 | 0.0 | 0.0 | 0.00 | 0.00 | 0.00 | 70 | 1020.3 | |
| 20260504025530 | 46 | 0.0 | 0.0 | 0.00 | 0.00 | 0.00 | 70 | 1020.1 | |
| 20260504024518 | 47 | 0.0 | 0.0 | 0.00 | 0.00 | 0.00 | 71 | 1020.1 | |
| 20260504023604 | 47 | 0.0 | 0.0 | 0.00 | 0.00 | 0.00 | 70 | 1019.8 | |
| 20260504022549 | 47 | 0.0 | 0.0 | 0.00 | 0.00 | 0.00 | 69 | 1019.8 | |
| 20260504021517 | 47 | 0.0 | 0.0 | 0.00 | 0.00 | 0.00 | 69 | 1019.8 | |
| 20260504020522 | 47 | 0.0 | 0.0 | 0.00 | 0.00 | 0.00 | 69 | 1019.7 | |
| 20260504015547 | 47 | 0.0 | 0.0 | 0.00 | 0.00 | 0.00 | 66 | 1019.6 | |
| 20260504014515 | 48 | 0.0 | 0.0 | 0.00 | 0.00 | 0.00 | 62 | 1019.6 | |
| 20260504013541 | 49 | 0.0 | 0.0 | 0.00 | 0.00 | 0.00 | 63 | 1019.4 | |
| 20260504012526 | 49 | 0.0 | 0.0 | 0.00 | 0.00 | 0.00 | 60 | 1019.3 | |
| 20260504011531 | 50 | 0.0 | 0.0 | 0.00 | 0.00 | 0.00 | 55 | 1019.3 | |
| 20260504010519 | 51 | 0.0 | 0.0 | 0.00 | 0.00 | 0.00 | 55 | 1019.1 | |
| 20260504005524 | 52 | 0.0 | 0.0 | 0.00 | 0.00 | 0.00 | 53 | 1019.0 | |
| 20260504004530 | 53 | 0.0 | 0.0 | 0.00 | 0.00 | 0.00 | 52 | 1018.9 | |
| 20260504003537 | 54 | 0.0 | 0.0 | 0.00 | 0.00 | 0.00 | 47 | 1018.9 | |
| 20260504002543 | 55 | 0.0 | 0.0 | 0.00 | 0.00 | 0.00 | 42 | 1018.8 | |
| 20260504001529 | 57 | 0.0 | 0.0 | 0.00 | 0.00 | 0.00 | 42 | 1018.8 | |
| 20260504000516 | 58 | 0.0 | 0.0 | 0.00 | 0.00 | 0.00 | 40 | 1018.8 | |
| 20260503235542 | 60 | 0.0 | 0.0 | 0.00 | 0.00 | 0.00 | 38 | 1018.7 | |
| 20260503234547 | 62 | 0.0 | 0.0 | 0.00 | 0.00 | 0.00 | 36 | 1018.7 | |
| 20260503233532 | 63 | 0.0 | 0.0 | 0.00 | 0.00 | 0.00 | 35 | 1018.7 | |
| 20260503232540 | 65 | 0.0 | 0.0 | 0.00 | 0.00 | 0.00 | 34 | 1018.7 | |
| 20260503231525 | 66 | 253 | 1.7 | 2.6 | 0.00 | 0.00 | 0.00 | 29 | 1018.7 |
| 20260503230531 | 67 | 242 | 2.6 | 3.5 | 0.00 | 0.00 | 0.00 | 27 | 1018.8 |
| 20260503225518 | 70 | 239 | 3.5 | 4.3 | 0.00 | 0.00 | 0.00 | 25 | 1018.8 |
| 20260503224524 | 71 | 223 | 3.5 | 4.3 | 0.00 | 0.00 | 0.00 | 23 | 1018.9 |
| 20260503223529 | 72 | 293 | 2.6 | 4.3 | 0.00 | 0.00 | 0.00 | 23 | 1019.0 |
| 20260503222517 | 73 | 227 | 3.5 | 5.2 | 0.00 | 0.00 | 0.00 | 23 | 1019.0 |
| 20260503221522 | 72 | 302 | 1.7 | 3.5 | 0.00 | 0.00 | 0.00 | 23 | 1019.1 |
| 20260503220528 | 72 | 236 | 4.3 | 6.1 | 0.00 | 0.00 | 0.00 | 22 | 1019.1 |
| 20260503215516 | 72 | 248 | 3.5 | 5.2 | 0.00 | 0.00 | 0.00 | 23 | 1019.3 |
| 20260503214521 | 72 | 248 | 4.3 | 6.1 | 0.00 | 0.00 | 0.00 | 23 | 1019.3 |